STARLINK-2742 (48688 NORAD) Tracking and Keplerian Element Data

This shows tracking and keplerian element data for the satellite.

Feedback or suggestion? Click here.




ElementValue
Catalog48688
NameSTARLINK-2742
Epoch Orbit1164
Epoch Day215.25002315
Epoch Year2021
RAAN84.3362
Inclination53.0465
Eccentricity0.0002351
Argument of Perigee14.6439
Mean Anonmoly159.2965
Mean Motion15.73212067
Decay Rate-8.376E-05
L11 48688U 21044BC 21215.25002315 -.00008376 00000-0 -55260-4 0 9992
L22 48688 53.0465 84.3362 0002351 14.6439 159.2965 15.73212067 11646

Live tracking and technical data element details for STARLINK-2742 (NORAD 48688). STARLINK-2742 can be tracked NOW for your location showing map with azimuth and elevation plus other details from your city location.

Track the satellite on the map from your city or location and see movement details for azimuth, elevation, latitude, longitude, range, height, and movement on the map or in text.







IsCatalogInMostPopularTable: catalog: 48688, numindb: 13
Update: records affected: 1



GetName: 48688 STARLINK-2742

Hit Count: updated at: Tue, 03 Aug 2021 19:36:41 GMT